Date String (YYYY-MM-DD hh:mm:ss) UTC,Instrument flags,Ambient pressure (hPa),Sample flow (lpm),Bypass flow (lpm),Sample temperature (°C),Ambient temperature (°C),ASC tube jacket temperature (°C),LED temperature (°C),Box temperature (°C),Sample RH (%),Span deviation,Mass concentration (μg/m³),Mass concentration (μg/m³),Mass concentration (μg/m³)
DateTimeUTC,F1_M11,P_M11,Q1_M11,Q2_M11,T1_M11,T2_M11,T3_M11,T4_M11,T5_M11,U1_M11,ZSPAN_M11,X0_M11,X2_M11,X1_M11
2021-11-12 04:00:00,,0826.3,5.00,0.00,25.5,24.8,00.0,34.5,27.4,13.4,0000.0,0004.55,0001.08,0000.48
2021-11-12 04:01:00,,0826.4,5.01,0.00,25.5,24.8,00.0,34.5,27.4,13.4,0000.0,0003.92,0001.09,0000.49
2021-11-12 04:02:00,,0826.4,5.00,0.00,25.5,24.8,00.0,34.5,27.4,13.4,0000.0,0003.94,0001.10,0000.50
2021-11-12 04:03:00,,0826.5,5.01,0.00,25.6,24.8,00.0,34.5,27.4,13.5,0000.0,0004.13,0001.15,0000.50
2021-11-12 04:04:00,,0826.5,5.01,0.00,25.6,24.8,00.0,34.5,27.4,13.5,0000.0,0004.24,0001.18,0000.51
2021-11-12 04:05:00,,0826.5,4.99,0.00,25.6,24.8,00.0,34.5,27.4,13.5,0000.0,0004.59,0001.20,0000.52
2021-11-12 04:06:00,,0826.5,5.01,0.00,25.6,24.8,00.0,34.5,27.4,13.4,0000.0,0005.55,0001.23,0000.51
2021-11-12 04:07:00,,0826.5,5.00,0.00,25.6,24.8,00.0,34.5,27.4,13.4,0000.0,0005.49,0001.24,0000.52
2021-11-12 04:08:00,,0826.5,5.01,0.00,25.6,24.8,00.0,34.6,27.4,13.4,0000.0,0005.65,0001.27,0000.52
2021-11-12 04:09:00,,0826.6,4.99,0.00,25.6,24.8,00.0,34.6,27.4,13.4,0000.0,0005.77,0001.27,0000.53
2021-11-12 04:10:00,,0826.7,5.01,0.00,25.6,24.8,00.0,34.6,27.4,13.2,0000.0,0005.60,0001.21,0000.54
2021-11-12 04:11:00,,0826.8,5.00,0.00,25.6,24.8,00.0,34.6,27.4,13.2,0000.0,0007.04,0001.18,0000.55
2021-11-12 04:12:00,,0826.9,5.02,0.00,25.6,24.8,00.0,34.6,27.4,13.4,0000.0,0007.71,0001.19,0000.56
2021-11-12 04:13:00,,0827.0,5.00,0.00,25.5,24.7,00.0,34.6,27.3,13.7,0000.0,0008.04,0001.24,0000.59
2021-11-12 04:14:00,,0826.8,4.99,0.00,25.5,24.7,00.0,34.6,27.2,14.0,0000.0,0008.44,0001.40,0000.65
2021-11-12 04:15:00,,0826.9,5.01,0.00,25.5,24.6,00.0,34.6,27.2,14.1,0000.0,0008.66,0001.59,0000.72
2021-11-12 04:16:00,,0827.0,5.01,0.00,25.4,24.5,00.0,34.5,27.2,14.0,0000.0,0008.90,0001.74,0000.79
2021-11-12 04:17:00,,0827.0,5.01,0.00,25.4,24.5,00.0,34.5,27.1,13.9,0000.0,0008.84,0001.97,0000.88
2021-11-12 04:18:00,,0826.9,5.00,0.00,25.4,24.5,00.0,34.5,27.1,13.6,0000.0,0009.75,0002.20,0000.97
2021-11-12 04:19:00,,0826.9,4.99,0.00,25.3,24.4,00.0,34.5,27.1,13.2,0000.0,0010.73,0002.44,0001.05
2021-11-12 04:20:00,,0827.0,5.01,0.00,25.3,24.4,00.0,34.5,27.0,12.8,0000.0,0011.73,0002.71,0001.14
2021-11-12 04:21:00,,0827.1,5.00,0.00,25.3,24.3,00.0,34.4,27.0,12.6,0000.0,0011.85,0002.94,0001.22
2021-11-12 04:22:00,,0827.2,5.00,0.00,25.2,24.3,00.0,34.4,27.0,12.7,0000.0,0011.24,0003.18,0001.32
2021-11-12 04:23:00,,0827.2,5.01,0.00,25.2,24.3,00.0,34.4,26.9,12.7,0000.0,0011.50,0003.33,0001.40
2021-11-12 04:24:00,,0827.3,5.00,0.00,25.2,24.3,00.0,34.4,26.9,12.5,0000.0,0011.92,0003.45,0001.48
2021-11-12 04:25:00,,0827.2,4.99,0.00,25.2,24.2,00.0,34.4,26.9,12.3,0000.0,0011.76,0003.51,0001.52
2021-11-12 04:26:00,,0827.4,5.01,0.00,25.1,24.2,00.0,34.3,26.8,12.2,0000.0,0011.77,0003.53,0001.55
2021-11-12 04:27:00,,0827.4,5.01,0.00,25.1,24.2,00.0,34.3,26.8,12.3,0000.0,0011.88,0003.57,0001.58
2021-11-12 04:28:00,,0827.5,4.99,0.00,25.1,24.1,00.0,34.3,26.8,12.3,0000.0,0012.06,0003.62,0001.60
2021-11-12 04:29:00,,0827.6,5.00,0.00,25.0,24.1,00.0,34.3,26.8,12.2,0000.0,0011.89,0003.60,0001.63
2021-11-12 04:30:00,,0827.6,5.01,0.00,25.0,24.1,00.0,34.2,26.7,12.1,0000.0,0012.84,0003.62,0001.65
2021-11-12 04:31:00,,0827.5,5.00,0.00,25.0,24.1,00.0,34.2,26.7,12.1,0000.0,0012.19,0003.55,0001.68
2021-11-12 04:32:00,,0827.4,5.00,0.00,25.0,24.0,00.0,34.2,26.7,12.0,0000.0,0011.85,0003.56,0001.70
2021-11-12 04:33:00,,0827.4,4.99,0.00,24.9,23.9,00.0,34.2,26.6,11.8,0000.0,0011.65,0003.57,0001.73
2021-11-12 04:34:00,,0827.4,5.01,0.00,24.8,23.8,00.0,34.1,26.5,11.7,0000.0,0011.66,0003.49,0001.74
2021-11-12 04:35:00,,0827.5,5.00,0.00,24.8,23.7,00.0,34.1,26.4,11.7,0000.0,0011.74,0003.46,0001.76
2021-11-12 04:36:00,,0827.6,5.00,0.00,24.7,23.6,00.0,34.1,26.4,11.6,0000.0,0012.04,0003.47,0001.77
2021-11-12 04:37:00,,0827.5,5.01,0.00,24.7,23.6,00.0,34.0,26.3,11.6,0000.0,0012.10,0003.46,0001.80
2021-11-12 04:38:00,,0827.7,5.01,0.00,24.6,23.5,00.0,34.0,26.3,11.6,0000.0,0012.34,0003.47,0001.82
2021-11-12 04:39:00,,0827.8,5.00,0.00,24.6,23.5,00.0,33.9,26.3,11.6,0000.0,0012.43,0003.36,0001.84
2021-11-12 04:40:00,,0827.9,4.99,0.00,24.6,23.5,00.0,33.9,26.3,11.5,0000.0,0012.48,0003.33,0001.84
2021-11-12 04:41:00,,0828.0,5.00,0.00,24.6,23.5,00.0,33.9,26.3,11.6,0000.0,0011.01,0003.30,0001.84
2021-11-12 04:42:00,,0828.0,5.00,0.00,24.6,23.6,00.0,33.9,26.3,11.4,0000.0,0010.40,0003.32,0001.83
2021-11-12 04:43:00,,0828.0,5.00,0.00,24.6,23.6,00.0,33.8,26.3,11.3,0000.0,0010.22,0003.28,0001.82
2021-11-12 04:44:00,,0828.1,5.00,0.00,24.6,23.6,00.0,33.8,26.3,11.2,0000.0,0010.26,0003.21,0001.80
2021-11-12 04:45:00,,0828.1,5.01,0.00,24.6,23.7,00.0,33.8,26.3,11.2,0000.0,0010.70,0003.21,0001.81
2021-11-12 04:46:00,,0828.1,4.99,0.00,24.5,23.7,00.0,33.8,26.3,11.0,0000.0,0010.03,0003.19,0001.81
2021-11-12 04:47:00,,0828.2,5.00,0.00,24.5,23.7,00.0,33.7,26.3,11.0,0000.0,0009.52,0003.13,0001.81
2021-11-12 04:48:00,,0828.2,5.01,0.00,24.5,23.7,00.0,33.7,26.3,11.0,0000.0,0009.45,0003.09,0001.79
2021-11-12 04:49:00,,0828.2,4.99,0.00,24.5,23.7,00.0,33.7,26.3,10.9,0000.0,0009.12,0003.04,0001.78
2021-11-12 04:50:00,,0828.3,4.99,0.00,24.5,23.6,00.0,33.7,26.2,10.9,0000.0,0008.56,0003.09,0001.77
2021-11-12 04:51:00,,0828.6,5.00,0.00,24.5,23.7,00.0,33.7,26.2,10.9,0000.0,0008.24,0003.12,0001.76
2021-11-12 04:52:00,,0828.7,5.01,0.00,24.5,23.7,00.0,33.7,26.3,10.9,0000.0,0008.77,0003.14,0001.76
2021-11-12 04:53:00,,0828.9,4.99,0.00,24.5,23.7,00.0,33.7,26.3,10.8,0000.0,0008.65,0003.08,0001.75
2021-11-12 04:54:00,,0829.0,5.00,0.00,24.5,23.7,00.0,33.6,26.3,10.8,0000.0,0008.95,0003.05,0001.76
2021-11-12 04:55:00,,0829.0,5.00,0.00,24.5,23.8,00.0,33.6,26.3,10.8,0000.0,0009.05,0003.06,0001.78
2021-11-12 04:56:00,,0828.7,5.00,0.00,24.5,23.8,00.0,33.6,26.3,10.8,0000.0,0008.37,0003.04,0001.78
2021-11-12 04:57:00,,0828.9,4.99,0.00,24.5,23.8,00.0,33.6,26.4,10.8,0000.0,0008.35,0003.04,0001.78
2021-11-12 04:58:00,,0829.3,5.00,0.00,24.6,23.8,00.0,33.6,26.4,10.8,0000.0,0009.43,0003.09,0001.79
2021-11-12 04:59:00,,0829.1,5.01,0.00,24.6,23.9,00.0,33.6,26.4,10.7,0000.0,0009.53,0003.12,0001.81
